This is the latest recevied weather packets stored in our database for station/object K6MBY. If no packets are shown the sender has not sent any weather packets the latest 10 day(s).
| Time | Temp. | Humidity | Pressure | Rain* | Wind** | Luminosity | Snow |
|---|---|---|---|---|---|---|---|
| 1777221932 | 12.22° C | 60% | 1013.1 hPa | 0 mm | - | 540 W/m² | - |
| 1777221627 | 12.22° C | 64% | 1013.4 hPa | 0 mm | - | 526 W/m² | - |
| 1777221324 | 12.22° C | 63% | 1013.3 hPa | 0 mm | - | 512 W/m² | - |
| 1777221022 | 12.22° C | 63% | 1013.3 hPa | 0 mm | - | 493 W/m² | - |
| 1777220721 | 11.67° C | 62% | 1013.3 hPa | 0 mm | - | 479 W/m² | - |
| 1777220418 | 12.22° C | 56% | 1013.4 hPa | 0 mm | - | 464 W/m² | - |
| 1777220117 | 12.78° C | 52% | 1013.3 hPa | 0 mm | - | 451 W/m² | - |
| 1777219814 | 12.22° C | 49% | 1013.2 hPa | 0 mm | - | 432 W/m² | - |
| 1777219512 | 12.78° C | 54% | 1013.4 hPa | 0 mm | - | 417 W/m² | - |
| 1777219209 | 12.22° C | 55% | 1013.2 hPa | 0 mm | - | 400 W/m² | - |
| 1777218904 | 12.22° C | 51% | 1013.3 hPa | 0 mm | - | 385 W/m² | - |
| 1777218600 | 12.22° C | 55% | 1013.4 hPa | 0 mm | - | 370 W/m² | - |
| 1777218300 | 12.22° C | 55% | 1013.3 hPa | 0 mm | - | 357 W/m² | - |
| 1777217997 | 11.67° C | 58% | 1013.2 hPa | 0 mm | - | 341 W/m² | - |
| 1777217693 | 11.67° C | 60% | 1013.4 hPa | 0 mm | - | 324 W/m² | - |
| 1777217389 | 11.11° C | 61% | 1013.3 hPa | 0 mm | - | 307 W/m² | - |
| 1777217086 | 11.11° C | 63% | 1013.3 hPa | 0 mm | - | 293 W/m² | - |
| 1777216782 | 10.56° C | 66% | 1013.1 hPa | 0 mm | - | 277 W/m² | - |
| 1777216478 | 10° C | 68% | 1013.2 hPa | 0 mm | - | 262 W/m² | - |
| 1777216173 | 10° C | 68% | 1013.3 hPa | 0 mm | - | 246 W/m² | - |
| 1777215867 | 10° C | 66% | 1013.3 hPa | 0 mm | - | 228 W/m² | - |
| 1777215563 | 10° C | 66% | 1013 hPa | 0 mm | - | 213 W/m² | - |
| 1777215260 | 10° C | 64% | 1012.9 hPa | 0 mm | - | 197 W/m² | - |
| 1777214955 | 10° C | 64% | 1013 hPa | 0 mm | - | 182 W/m² | - |
| 1777214649 | 10° C | 61% | 1012.9 hPa | 0 mm | - | 167 W/m² | - |
* Rain latest hour (hover to see other rain measurements)
** Current wind speed in m/s (hover to see current wind gust speed)